Find Starlink 36623

NORAD ID: 67644 Int'l Des: 2026-020 Owner: SPXS Country: US Constellation: starlink operational
LEOCIRCULAR

現在のビュー

3D地球を読み込み中...

Starlink 36623について

説明を読み込み中...

次回通過

Passes for default location (London). Set your location on the main map for personalized predictions.

高度履歴

Loading altitude history...

軌道要素

1 67644U 26020AD 26146.15067832 .00021451 00000-0 78614-3 0 9990
2 67644 43.0049 62.0222 0001413 277.4259 82.6432 15.27606894 17964
Epoch: May 26, 2026 • Age: 12 hours

現在のステータス

高度 486.8 km
速度 7.62 km/s
衛星直下点 -20.28°S, 88.91°W
打ち上げ日 Jan 30, 2026
運用期間 0.3 years
タイプ internet

技術仕様

分類 Payload
質量 575.00 kg
乾燥質量 530.00 kg
総質量 575.00 kg
長さ 0.30 m
直径 4.10 m
スパン 29.00 m
形状 Box + pan
製造者 SPXS
バスタイプ Starlink V2MO
フェーズステータス In Orbit
所有者/国 SPXS/US

Most Searched